Regional Weather Roundup
Issued by NWS

Home | Current Version | Previous Version | Text Only | Print | Product List | Glossary Off
Versions: 1 2 3 4 5 6 7 8 9 10 11 12 13 14 15 16 17 18 19 20 21 22 23 24 25 26 27 28 29 30 31 32 33 34 35 36 37 38 39 40 41 42 43 44 45 46 47 48 49 50

000
ASUS43 KOAX 301110
RWRNE

WEATHER ROUNDUP FOR NEBRASKA
NATIONAL WEATHER SERVICE OMAHA NE
600 AM CDT SAT APR 30 2016

NOTES: SATELLITE DATA IS BEING USED TO AUGMENT CLOUD COVER ABOVE
       12000 FEET.
       "FAIR" INDICATES FEW OR NO CLOUDS BELOW 12,000 FEET WITH NO
       SIGNIFICANT WEATHER AND/OR OBSTRUCTIONS TO VISIBILITY.

  * THESE STATIONS DO NOT REPORT WEATHER SUCH AS RAIN...SNOW OR FOG.

NEZ001>004-019>022-054>056-301200-
NEBRASKA PANHANDLE

CITY           SKY/WX    TMP DP  RH WIND       PRES   REMARKS
SCOTTSBLUFF    LGT SNOW  33  31  92 N7        29.92S FOG     WCI  27
ALLIANCE       LGT SNOW  32  32 100 N13       29.89S VSB 3/4 WCI  22
CHADRON        LGT RAIN  37  36  96 N13       29.96R WCI  29
KIMBALL        LGT SNOW  31  31  99 N12       29.87S WCI  22
SIDNEY         LGT SNOW  32  30  92 N17       29.85F FOG     WCI  21
$$

NEZ057>060-069>072-079>082-301200-
SOUTHWEST NEBRASKA

CITY           SKY/WX    TMP DP  RH WIND       PRES   REMARKS
NORTH PLATTE   LGT RAIN  33  32  96 N8        29.81F WCI  26
IMPERIAL       LGT SNOW  33  32  96 N15       29.82S FOG     WCI  23
LEXINGTON      CLOUDY    37  35  92 N8        29.78S WCI  30
MCCOOK         CLOUDY    36  34  92 N14       29.78F FOG     WCI  27
OGALLALA       LGT RAIN  33  32  94 N9        29.84F WCI  26
$$

NEZ005>010-023>029-035>040-094-301200-
NORTH CENTRAL NEBRASKA

CITY           SKY/WX    TMP DP  RH WIND       PRES   REMARKS
VALENTINE      LGT RAIN  40  37  89 NE17G29   29.91S WCI  31
AINSWORTH      RAIN      38  37  94 E15G23    29.89R WCI  30
BROKEN BOW     LGT RAIN  35  33  92 N10       29.79F WCI  27
O`NEILL        LGT RAIN  41  39  94 NE13      29.88R
ORD            RAIN      40  39  97 NE13      29.78F WCI  32
THEDFORD       LGT SNOW  33  33  99 NE6       29.86S WCI  28
$$

NEZ041-046>049-061>064-073>077-083>087-301200-
SOUTH CENTRAL NEBRASKA

CITY           SKY/WX    TMP DP  RH WIND       PRES   REMARKS
GRAND ISLAND   LGT RAIN  42  40  92 NE15      29.74F
AURORA         LGT RAIN  43  42  99 NE15      29.73F
HASTINGS       CLOUDY    42  40  92 NE15      29.72F
HEBRON         CLOUDY    45  44  97 NE9       29.69F
HOLDREGE       DRIZZLE   40  39  96 N10       29.74S WCI  34
KEARNEY *      CLOUDY    41  37  87 N12       29.74F
YORK           RAIN      43  43 100 NE10      29.75S
$$

NEZ011>018-030>034-042>045-301200-
NORTHEAST NEBRASKA

CITY           SKY/WX    TMP DP  RH WIND       PRES   REMARKS
NORFOLK        RAIN      42  39  89 NE15G21   29.79F FOG
ALBION         RAIN      41  39  93 NE13      29.79F
BLAIR          RAIN      44  43  95 NE21G29   29.73F
COLUMBUS *     CLOUDY    43  36  75 NE13      29.77S
FREMONT        RAIN      43  43  99 NE15      29.74F
TEKAMAH        RAIN      44  42  93 NE20G28   29.77F FOG
WAYNE          RAIN      43  41  93 E21G26    29.82F
$$

NEZ050>053-065>068-078-088>093-301200-
SOUTHEAST NEBRASKA

CITY           SKY/WX    TMP DP  RH WIND       PRES   REMARKS
LINCOLN        RAIN      46  44  93 NE15      29.73F FOG
OMAHA EPPLEY   RAIN      46  43  89 VRB6G20   29.74F FOG
BEATRICE       CLOUDY    46  46  97 NE8       29.67F
FALLS CITY     LGT RAIN  50  49  96 E9        29.64F
NEBRASKA CITY  RAIN      46  46 100 E13G22    29.69F
PLATTSMOUTH    LGT RAIN  45  44  98 E17G25    29.71F
$$

NEZ044-045-051>053-067-301200-
OMAHA AREA

CITY           SKY/WX    TMP DP  RH WIND       PRES   REMARKS
OMAHA EPPLEY   RAIN      46  43  89 VRB6G20   29.74F FOG
BLAIR          RAIN      44  43  95 NE21G29   29.73F
FREMONT        RAIN      43  43  99 NE15      29.74F
MILLARD        LGT RAIN  46  43  91 E8        29.72F
OFFUTT AFB     HVY RAIN  45  45 100 NE15G24   29.71F FOG
PLATTSMOUTH    LGT RAIN  45  44  98 E17G25    29.71F
WAHOO          LGT RAIN  45  43  93 NE12G18   29.73F
$$



USA.gov is the U.S. government's official web portal to all federal, state and local government web resources and services.